User: anonymous   Login
Location: Oshawa
(43.9000°N, 78.8670°W)
Time: 10:59:50
(UTC-05:00)
Language:

Cosmos 1500 - Orbit

View from above orbital plane
View from above orbital plane
View from above satellite
View from above satellite

Ground track
Ground track

The orbit data is extracted from the following two-line orbital elements,

1 14372U 83099A   14326.80175806  .00006482  00000-0  36794-3 0  6918
2 14372 082.5154 187.5588 0019467 095.6841 030.5945 15.12608844695797
Epoch (UTC): 22 November 2014 19:14:31
Eccentricity: 0.0019467
inclination: 82.5154°
perigee height: 515 km
apogee height: 541 km
right ascension of ascending node: 187.5588°
argument of perigee: 95.6841°
revolutions per day: 15.12608844
mean anomaly at epoch: 30.5945°
orbit number at epoch: 69579

The dashed part of the orbit path shows where the satellite is in the earth's shadow,  

DLR